User: anonymous   Login
Location: Bucquoy
(50.1391°N, 2.7097°E)
Time: 07:10:08
(UTC+00:00)
Language:

Cosmos 2263 Rocket - Orbit

View from above orbital plane
View from above orbital plane
View from above satellite
View from above satellite

Ground track
Ground track

The orbit data is extracted from the following two-line orbital elements,

1 22803U 93059B   21216.70132136 -.00000046  00000-0  10236-5 0  9994
2 22803  70.9915 308.3719 0019367 249.5534 110.3510 14.16841383441837
Epoch (UTC): 04 August 2021 16:49:54
Eccentricity: 0.0019367
inclination: 70.9915°
perigee height: 822 km
apogee height: 850 km
right ascension of ascending node: 308.3719°
argument of perigee: 249.5534°
revolutions per day: 14.16841383
mean anomaly at epoch: 110.3510°
orbit number at epoch: 44183

The dashed part of the orbit path shows where the satellite is in the earth's shadow,  

DLR